Welcome to the New NWS' Forecast!
Most changes are behind the scenes, but click here for differences you might notice.

Regional Weather Roundup (RWR)

Issued by Gray - Portland, ME (GYX)

                            
747 
ASUS41 KGYX 231305
RWRGYX
WEATHER ROUNDUP FOR MAINE AND NEW HAMPSHIRE
NATIONAL WEATHER SERVICE GRAY ME
900 AM EDT SUN SEP 23 2018

MEZ002-005-006-010-012-015-018-020-021-024-026-027-029-231400-
MAINE
  
CITY           SKY/WX    TMP DP  RH WIND       PRES   REMARKS
PORTLAND       FAIR      53  45  74 VRB5      30.27S                  
SANFORD        FAIR      52  45  77 N5        30.27S                  
BAR HARBOR     FAIR      53  41  63 CALM      30.27R                  
WISCASSET      FAIR      52  46  80 CALM      30.28S                  
ROCKLAND       FAIR      54  44  69 CALM      30.27R                  
FRYEBURG       FAIR      44  42  93 CALM      30.27F                  
LEWISTONAUBURN FAIR      47  42  83 CALM      30.27S                  
AUGUSTA        FAIR      50  44  80 CALM      30.27R                  
WATERVILLE     FAIR      45  43  93 CALM      30.24S FOG              
BANGOR         FAIR      50  42  74 SW3       30.26R                  
GREENVILLE       N/A     49  39  68 VRB7      30.20R                  
MILLINOCKET    FAIR      52  41  66 VRB3      30.22F                  
HOULTON        FAIR      48  41  76 SW7       30.19R                  
PRESQUE ISLE   PTSUNNY   48  39  71 W10       30.17R                  
FRENCHVILLE    CLOUDY    43  36  76 S8        30.12R                  
CARIBOU        CLOUDY    46  38  73 SW8       30.14S                  
$$

NHZ002-005-008-009-011-012-014-231400-
NEW HAMPSHIRE
  
CITY           SKY/WX    TMP DP  RH WIND       PRES   REMARKS
PORTSMOUTH     MOSUNNY   53  44  69 NW3       30.25S                  
ROCHESTER      FAIR      52  47  83 CALM      30.26S                  
NASHUA         FAIR      50  46  86 CALM      30.28S                  
MANCHESTER     FAIR      52  44  74 N6        30.26R                  
CONCORD        FAIR      49  46  90 CALM      30.27S                  
LACONIA        FAIR      49  43  80 CALM      30.27F                  
PLYMOUTH       CLOUDY    41  41  99 CALM      30.28F                  
BERLIN         CLOUDY    39  38  96 CALM      30.28R FOG              
WHITEFIELD     PTSUNNY   39  38  96 CALM      30.28R                  
JAFFREY        FAIR      49  47  93 CALM      30.27S                  
KEENE          CLOUDY   N/A N/A N/A CALM      30.29S                  
LEBANON        FOG       44  40  85 N5        30.28S VSB 1            
MT WASHINGTON  MOSUNNY   37 -17   9 W31         N/A                   
$$

VTZ005-007-008-231400-
VERMONT
  
CITY           SKY/WX    TMP DP  RH WIND       PRES   REMARKS
ST JOHNSBURY     N/A     37  37 100 MISG      30.29R                  
MONTPELIER     FOG       38  38 100 NE3       30.31R VSB<1/4          
BURLINGTON     FAIR      48  42  80 SE3       30.28S                  
$$

MAZ007-012-024-CTZ003-RIZ002-NYZ038-NYZ072-231400-
SOUTHERN NEW ENGLAND AND NY
  
CITY           SKY/WX    TMP DP  RH WIND       PRES   REMARKS
BOSTON         FAIR      56  45  66 NW6       30.27R                  
WORCESTER      FAIR      53  39  59 VRB3      30.27R                  
NANTUCKET      FAIR      62  50  64 E3        30.25R                  
PROVIDENCE     FAIR      54  45  71 N5        30.27R                  
HARTFORD       PTSUNNY   51  49  92 N5        30.27R                  
ALBANY         PTSUNNY   52  48  86 CALM      30.29R                  
NEW YORK CITY  PTSUNNY   63  50  62 N8        30.23R                  
$$

ANZ081-ANZ082-ANZ150-NHZ014-MEZ023>029-231400-
COASTAL MARINE OBSERVATIONS
  
STATION/POSITION TIME  TEMP    WIND        PRES    WAVE
                       AIR SEA DIR/SP/G            HT/PER
                 (UTC) (F)     (DEG/KT/KT) (MB)    (FT/S)
MOUNT DESERT ROC 1200   54      10/  4/  4 1024.8R
MATINICUS ROCK   1200   57      70/  5/  5 1024.3R
ISLE OF SHOALS   1200   56      20/  9/ 10 1024.0R
JEFFREYS LEDGE   1236      63                N/A     2/11
$$

.............KEY..............
   WCI - WIND CHILL
   TC  - TEMPERATURE IN CELSIUS
   VSB - VISIBILITY IN MILES
   HX  - HEAT INDEX
   FAIR- INDICATES FEW OR NO CLOUDS BELOW 12,000 FT, WITH NO 
         SIGNIFICANT WEATHER AND/OR OBSTRUCTIONS TO VISIBILITY.